Showing default

SHIYAN 27D, 63602

Orbit data source: Space-Track

SHIYAN 27D, 63602 is a payload satellite owned by CAST (CN) in SSO that was launched on Fri, 18 Apr 2025 UTC via a CHANG ZHENG 6A launch vehicle from the Taiyaun Space Center, China (TSC). Payload-class satellites include a variety of spacecraft equipped with specific instruments for various scientific and technological missions. These include communications satellites like Starlink; space stations such as the ISS; scientific satellites like the Hubble; Earth observation satellites from companies like Planet Labs, Umbra, and HawkEye 360; GPS; miniature CubeSats for education and research; and military/defense satellites.

Loading next visibility...
Identifier
63602, 2025-078D
Orbit
SSO
Country
Flag of CNCN / PRC
Related business
Manufacturer
CAST
Mission
Operational Defense Radar Imaging
Bus & Motor
SW27, Unknown motor
Mass
300 kg wet, ~300 kg dry
Launch date (UTC)
2025-04-18 (6 months ago)
Launch vehicle
CHANG ZHENG 6A
Launch site
Taiyaun Space Center, China (TSC)
Object type
Payload
Rocket body
Debris
Shape & HBR
Box + 1 Pan, 2.0 m
Radar Cross Section
13.200 m², Large (>1 m²)

Expand to show TLE details & history
Last TLE update: 4 hours ago

TLE from 4 hours ago
0 SHIYAN 27D
1 63602U 25078D   25304.62480875  .00000030  00000-0  10454-3 0  9993
2 63602  99.6969 310.2387 0000701  96.0857 264.0361 13.57220667 26520
Epoch: 2025-10-31T14:59Z
TLE epoch observation values (Epoch: 2025-10-31T14:59:43.475Z)
Latitude
-0.00002°
Longitude
45.14099°
Altitude
1,048.66 km
Speed
7.328 km/s
True Right ascension
20h 40m 57s
True Declination
0° 00' 00"
Sunlit
Object was in daylight at epoch
Visualization orbit readout
Latitude
Unknown
Longitude
Unknown
Altitude
Unknown
Speed
Unknown
Apparent Right ascension
Unknown
Apparent Declination
Unknown
Sunlit
N/A
Visualization observer readout
Local Sidereal Time
15:05:48
Azimuth
Unknown
Elevation
Unknown
Doppler factor
Unknown
Orbital elements
Apogee altitude
1,043.622 km
Perigee altitude
1,042.581 km
Semi-major axis
7,421.239 km
Eccentricity
0.00007
Inclination
99.6969°
RAAN
310.2387°
Arg. of periapsis
96.0857°
True anomaly
264.02811°
Mean anomaly
264.0361°
Eccentric anomaly
264.03211°
Mean motion
3.39491 °/min
Orbital period
106.04 mins
BSTAR
0.00010454
Loading maneuver chart data...
Computing Atmospheric mass density...
Loading historical data...
Loading historical data...
Loading historical data...
Loading historical data...
Loading historical data...
Loading historical data...
Loading historical data...

Documentation

Showing up to 5 results
|